Fergus Falls, MN

5:11 AM CDT on March 30, 2017 (GMT -0500)
Fergus Falls Municipal-Mickelson

Weather History for KFFM - October, 2011

Change the Weather History Date:

Thursday, October 20, 2011

  Actual Average Record
Temperature  
Mean Temperature 40 °F -  
Max Temperature 51 °F 55 °F 83 °F (1953)
Min Temperature 28 °F 34 °F 23 °F (1952)
Degree Days  
Heating Degree Days 26    
Moisture  
Dew Point 31 °F    
Average Humidity 74    
Maximum Humidity 100    
Minimum Humidity 44    
Precipitation  
Precipitation 0.00 in - - ()
Sea Level Pressure  
Sea Level Pressure 30.07 in    
Wind  
Wind Speed 4 mph (North)    
Max Wind Speed 12 mph    
Max Gust Speed 16 mph    
Visibility 10 miles    
Events      
Averages and records for this station are not official NWS values.
T = Trace of Precipitation, MM = Missing Value Source: NWS Daily Summary

Daily Weather History Graph

Daily Weather History Graph

Search for Another Location

Airport or City:

Trip Planner

Search our weather history database for the weather conditions in past years. The results will help you decide how hot, cold, wet, or windy it might be!

Date:

Astronomy

Oct. 20, 2011 Rise Set
Actual Time 7:48 AM CDT 6:29 PM CDT
Civil Twilight 7:17 AM CDT 7:00 PM CDT
Nautical Twilight 6:42 AM CDT 7:35 PM CDT
Astronomical Twilight 6:08 AM CDT 8:09 PM CDT
Moon 12:10 AM CDT (10/20) 3:01 PM CDT (10/20)
Length of Visible Light 11h 42m
Length of Day
10h 41m
Last Quarter, 44% of the Moon is Illuminated
Oct 20
Last Quarter
Oct 26
New
Nov 2
First Quarter
Nov 10
Full
Nov 18
Last Quarter

Hourly Weather History & Observations

Time (CDT) Temp. Windchill Dew Point Humidity Pressure Visibility Wind Dir Wind Speed Gust Speed Precip Events Conditions
12:33 AM 30.2 °F 25.4 °F 30.2 °F 100% 30.13 in 10.0 mi NNE 4.6 mph - N/A   Clear
12:53 AM 32.0 °F - 30.2 °F 93% 30.13 in 10.0 mi Calm Calm - N/A   Clear
1:13 AM 33.8 °F 30.8 °F 30.2 °F 87% 30.13 in 10.0 mi NE 3.5 mph - N/A   Clear
1:33 AM 32.0 °F 28.7 °F 30.2 °F 93% 30.14 in 10.0 mi NNE 3.5 mph - N/A   Clear
1:53 AM 33.8 °F 29.6 °F 30.2 °F 87% 30.14 in 10.0 mi NNE 4.6 mph - N/A   Clear
2:13 AM 30.2 °F - 30.2 °F 100% 30.14 in 10.0 mi Calm Calm - N/A   Clear
2:33 AM 32.0 °F 28.7 °F 30.2 °F 93% 30.14 in 10.0 mi NNE 3.5 mph - N/A   Clear
2:53 AM 32.0 °F 27.5 °F 30.2 °F 93% 30.14 in 10.0 mi NNE 4.6 mph - N/A   Clear
3:13 AM 30.2 °F 25.4 °F 28.4 °F 93% 30.14 in 10.0 mi NNE 4.6 mph - N/A   Clear
3:33 AM 30.2 °F 25.4 °F 30.2 °F 100% 30.13 in 10.0 mi NE 4.6 mph - N/A   Clear
3:53 AM 30.2 °F 26.7 °F 28.4 °F 93% 30.13 in 10.0 mi NE 3.5 mph - N/A   Clear
4:13 AM 30.2 °F 25.4 °F 28.4 °F 93% 30.13 in 10.0 mi NE 4.6 mph - N/A   Clear
4:33 AM 30.2 °F - 30.2 °F 100% 30.12 in 10.0 mi Calm Calm - N/A   Clear
4:53 AM 30.2 °F 25.4 °F 30.2 °F 100% 30.12 in 10.0 mi ENE 4.6 mph - N/A   Clear
5:13 AM 32.0 °F 27.5 °F 30.2 °F 93% 30.11 in 10.0 mi ENE 4.6 mph - N/A   Clear
5:33 AM 30.2 °F 26.7 °F 30.2 °F 100% 30.10 in 10.0 mi NE 3.5 mph - N/A   Clear
5:53 AM 30.2 °F 26.7 °F 30.2 °F 100% 30.11 in 10.0 mi ENE 3.5 mph - N/A   Clear
6:13 AM 30.2 °F - 30.2 °F 100% 30.10 in 10.0 mi Calm Calm - N/A   Clear
6:33 AM 28.4 °F 24.6 °F 28.4 °F 100% 30.10 in 10.0 mi North 3.5 mph - N/A   Clear
6:53 AM 30.2 °F 25.4 °F 30.2 °F 100% 30.10 in 10.0 mi NNE 4.6 mph - N/A   Clear
7:33 AM 28.4 °F 24.6 °F 28.4 °F 100% 30.10 in 10.0 mi NE 3.5 mph - N/A   Clear
7:52 AM 30.2 °F - 28.4 °F 93% 30.10 in 10.0 mi Calm Calm - N/A   Clear
8:13 AM 30.2 °F - 28.4 °F 93% 30.10 in 10.0 mi Calm Calm - N/A   Clear
8:33 AM 30.2 °F - 30.2 °F 100% 30.10 in 10.0 mi Calm Calm - N/A   Clear
8:53 AM 32.0 °F 28.7 °F 30.2 °F 93% 30.10 in 10.0 mi NNE 3.5 mph - N/A   Clear
9:13 AM 33.8 °F 30.8 °F 32.0 °F 93% 30.10 in 10.0 mi NNE 3.5 mph - N/A   Clear
9:33 AM 35.6 °F - 33.8 °F 93% 30.10 in 10.0 mi Calm Calm - N/A   Clear
9:53 AM 39.2 °F 37.0 °F 35.6 °F 87% 30.10 in 10.0 mi NNE 3.5 mph - N/A   Clear
10:13 AM 41.0 °F 39.0 °F 35.6 °F 81% 30.10 in 10.0 mi North 3.5 mph - N/A   Clear
10:33 AM 42.8 °F 40.1 °F 35.6 °F 76% 30.10 in 10.0 mi NNE 4.6 mph - N/A   Clear
10:53 AM 42.8 °F 39.3 °F 33.8 °F 70% 30.09 in 10.0 mi NNE 5.8 mph - N/A   Clear
11:13 AM 44.6 °F 41.4 °F 33.8 °F 66% 30.09 in 10.0 mi NNE 5.8 mph - N/A   Clear
11:33 AM 44.6 °F 42.2 °F 33.8 °F 66% 30.09 in 10.0 mi North 4.6 mph - N/A   Clear
11:52 AM 44.6 °F 40.2 °F 33.8 °F 66% 30.09 in 10.0 mi NNW 8.1 mph - N/A   Clear
12:13 PM 46.4 °F 44.3 °F 33.8 °F 62% 30.07 in 10.0 mi North 4.6 mph - N/A   Clear
12:33 PM 46.4 °F 44.3 °F 35.6 °F 66% 30.07 in 10.0 mi NNW 4.6 mph 9.2 mph N/A   Clear
12:53 PM 46.4 °F 45.2 °F 33.8 °F 62% 30.06 in 10.0 mi NNW 3.5 mph - N/A   Clear
1:33 PM 48.2 °F - 35.6 °F 62% 30.04 in 10.0 mi NW 5.8 mph - N/A   Clear
1:53 PM 50.0 °F - 33.8 °F 54% 30.03 in 10.0 mi NW 9.2 mph - N/A   Clear
2:13 PM 50.0 °F - 33.8 °F 54% 30.02 in 10.0 mi NW 6.9 mph - N/A   Clear
2:33 PM 51.8 °F - 33.8 °F 50% 30.02 in 10.0 mi NNW 11.5 mph - N/A   Clear
2:53 PM 51.8 °F - 33.8 °F 50% 30.02 in 10.0 mi North 8.1 mph 16.1 mph N/A   Clear
3:13 PM 51.8 °F - 33.8 °F 50% 30.01 in 10.0 mi NW 5.8 mph - N/A   Clear
3:33 PM 51.8 °F - 32.0 °F 47% 30.01 in 10.0 mi NW 9.2 mph - N/A   Clear
3:53 PM 51.8 °F - 32.0 °F 47% 30.01 in 10.0 mi NNW 8.1 mph - N/A   Clear
4:13 PM 51.8 °F - 32.0 °F 47% 30.01 in 10.0 mi NNW 6.9 mph - N/A   Clear
4:33 PM 51.8 °F - 30.2 °F 44% 30.01 in 10.0 mi North 3.5 mph - N/A   Clear
4:53 PM 51.8 °F - 30.2 °F 44% 30.00 in 10.0 mi NNW 4.6 mph - N/A   Clear
5:14 PM 51.8 °F - 30.2 °F 44% 30.00 in 10.0 mi NW 5.8 mph - N/A   Clear
5:33 PM 50.0 °F - 30.2 °F 47% 30.00 in 10.0 mi NNW 4.6 mph - N/A   Clear
5:53 PM 46.4 °F 44.3 °F 30.2 °F 53% 30.00 in 10.0 mi NNW 4.6 mph - N/A   Clear
6:14 PM 46.4 °F 44.3 °F 30.2 °F 53% 30.00 in 10.0 mi NW 4.6 mph - N/A   Clear
6:33 PM 46.4 °F 44.3 °F 30.2 °F 53% 30.00 in 10.0 mi NW 4.6 mph - N/A   Clear
7:13 PM 44.6 °F 43.1 °F 28.4 °F 53% 30.01 in 10.0 mi NW 3.5 mph - N/A   Clear
7:53 PM 42.8 °F 40.1 °F 28.4 °F 57% 30.01 in 10.0 mi NW 4.6 mph - N/A   Clear
8:13 PM 42.8 °F 40.1 °F 28.4 °F 57% 30.00 in 10.0 mi NW 4.6 mph - N/A   Clear
8:33 PM 41.0 °F 39.0 °F 28.4 °F 61% 30.00 in 10.0 mi WNW 3.5 mph - N/A   Clear
8:53 PM 42.8 °F - 28.4 °F 57% 30.00 in 10.0 mi Calm Calm - N/A   Clear
9:13 PM 41.0 °F - 28.4 °F 61% 30.00 in 7.0 mi Calm Calm - N/A   Clear
9:33 PM 41.0 °F - 28.4 °F 61% 30.00 in 10.0 mi Calm Calm - N/A   Clear
9:53 PM 41.0 °F - 28.4 °F 61% 30.00 in 10.0 mi Calm Calm - N/A   Clear
10:13 PM 41.0 °F - 30.2 °F 65% 30.00 in 10.0 mi Calm Calm - N/A   Clear
10:33 PM 37.4 °F - 30.2 °F 75% 30.00 in 10.0 mi Calm Calm - N/A   Clear
10:53 PM 39.2 °F 35.0 °F 30.2 °F 70% 30.00 in 10.0 mi SE 5.8 mph - N/A   Clear
11:13 PM 39.2 °F 35.0 °F 30.2 °F 70% 30.00 in 10.0 mi SE 5.8 mph - N/A   Clear
11:33 PM 39.2 °F 37.0 °F 30.2 °F 70% 30.00 in 10.0 mi SE 3.5 mph - N/A   Clear
11:53 PM 39.2 °F 37.0 °F 30.2 °F 70% 30.00 in 10.0 mi SSE 3.5 mph - N/A   Clear